Location: Oshawa
(43.9000°N, 78.8670°W)
Time: 20:57:29
(UTC-04:00)

Cosmos 1500 - Visible Passes

Search period start: 24 August 2016 00:00
Search period end: 03 September 2016 00:00
Orbit: 504 x 527 km, 82.5° (Epoch: 24 August)

Date Brightness Start Highest point End Pass type
(mag) Time Alt. Az. Time Alt. Az. Time Alt. Az.
24 Aug 3.2 21:34:20 24° SSE 21:36:23 54° E 21:40:05 10° NNE visible
24 Aug 6.3 23:11:20 10° W 23:12:28 11° WNW 23:13:35 10° NW visible
25 Aug 3.5 21:18:30 15° SSE 21:21:19 43° E 21:24:55 10° NNE visible
25 Aug 6.2 22:55:24 10° W 22:57:17 13° WNW 22:59:11 10° NW visible
26 Aug 3.8 21:02:49 10° SSE 21:06:15 35° E 21:09:43 10° NNE visible
26 Aug 6.1 22:39:44 10° WSW 22:42:06 16° WNW 22:44:30 10° NNW visible
27 Aug 4.0 20:47:55 10° SSE 20:51:12 29° E 20:54:30 10° NNE visible
27 Aug 5.9 22:24:12 10° WSW 22:26:56 19° WNW 22:29:42 10° NNW visible
28 Aug 4.3 20:33:05 10° SE 20:36:09 24° E 20:39:13 10° NE visible
28 Aug 5.6 22:08:46 10° SW 22:11:47 22° WNW 22:14:49 10° NNW visible
29 Aug 5.3 21:53:23 10° SW 21:56:38 27° WNW 21:59:54 10° NNW visible
30 Aug 5.0 21:38:04 10° SW 21:41:29 32° WNW 21:44:56 10° N visible
31 Aug 4.6 21:22:47 10° SSW 21:26:20 40° WNW 21:29:56 10° N visible
01 Sep 4.2 21:07:33 10° SSW 21:11:12 49° WNW 21:14:54 10° N visible
02 Sep 3.7 20:52:21 10° SSW 20:56:05 61° W 20:59:51 10° N visible
